Location: Bun
(42.9667°N, 0.1500°W)
Time: 04:32:54
(UTC+00:00)

IRIDIUM 103 - Pass Details

Date: 03 February 2023
Orbit: 776 x 779 km, 86.4° (Epoch: 26 March)

Event Time Altitude Azimuth Distance (km) Brightness Sun altitude
Rises 18:45:32 0° 358° (N) 3,274 7.5 -16.7°
Reaches altitude 10° 18:47:54 10° 360° (N) 2,341 6.7 -17.2°
Maximum altitude 18:53:09 77° 86° (E) 803 4.2 -18.1°
Drops below altitude 10° 18:58:22 10° 173° (S) 2,322 6.8 -19.1°
Sets 19:00:42 0° 175° (S) 3,245 7.6 -19.5°
